JWST (50463 NORAD) Tracking and Keplerian Element Data
This shows tracking and keplerian element data for the satellite.
Feedback or suggestion? Click here.
Element | Value |
Catalog | 50463 |
Name | JWST |
Epoch Orbit | 2 |
Epoch Day | 362 |
Epoch Year | 2021 |
RAAN | 89.0659 |
Inclination | 4.6198 |
Eccentricity | 0.9884983 |
Argument of Perigee | 192.32 |
Mean Anonmoly | 17.4027 |
Mean Motion | 0.01958082 |
Decay Rate | 0 |
L1 | 1 50463U 21130A 21362.00000000 .00000000 00000+0 00000+0 0 9997 |
L2 | 2 50463 4.6198 89.0659 9884983 192.3200 17.4027 0.01958082 27 |
Live tracking and technical data element details for JWST (NORAD 50463). JWST can be tracked NOW for your location showing map with azimuth and elevation plus other details from your city location.
Track the satellite on the map from your city or location and see movement details for azimuth, elevation, latitude, longitude, range, height, and movement on the map or in text.
IsCatalogInMostPopularTable: catalog: 50463, numindb: 49
Update: records affected: 1
GetName: 50463 JWST
Hit Count: updated at: Mon, 23 May 2022 20:53:23 GMT